Theta_e
343 341 342 341 338 332 333 336 335 334 333 332 329 327 324 316 313 312 311 307 307 309 311 313 315 315 315 314 313 313 313 310 310 312 312 312 312 311 312 313 314 314 314
340 340 338 337 336 336 335 333 329 327 325 324 319 314 313 313 311 308 307 309 311 314 315 315 314 314 313 313 313 312 311 312 310 310 311 311 312 311 311 312 312 311 311
339 338 337 337 336 335 333 327 324 324 319 315 314 313 311 308 307 309 312 314 315 314 314 313 313 313 313 314 312 310 310 310 309 309 309 311 312 311 311 311 310 309 309
338 337 336 334 332 330 325 320 318 315 314 312 310 308 308 309 311 314 315 314 313 313 313 313 313 312 312 311 311 310 311 310 310 309 308 309 309 311 310 309 309 310 308
336 334 330 324 321 320 317 315 313 311 309 308 308 308 309 312 314 313 313 313 313 313 313 313 313 312 310 310 310 310 310 310 310 309 309 309 310 310 308 309 308 308 308
331 329 322 319 317 314 313 310 308 308 308 308 308 310 313 313 312 313 313 312 312 312 313 313 312 312 312 311 311 310 310 309 309 307 307 306 308 308 308 309 308 306 305
324 317 315 312 312 309 308 308 309 309 307 308 309 311 313 312 312 312 312 312 312 313 313 313 312 312 312 312 311 311 311 310 309 307 306 306 306 307 307 309 307 307 307
316 313 310 309 308 308 309 309 308 307 308 309 310 311 312 312 312 312 311 312 313 312 313 314 313 313 312 312 312 312 312 311 310 309 307 307 307 307 307 308 308 308 308
310 308 307 308 308 309 309 308 308 308 309 309 310 311 312 312 312 311 311 312 313 313 313 313 312 311 311 311 311 311 311 311 310 308 307 307 308 309 310 309 308 307 308
307 307 308 308 309 309 309 309 309 309 309 310 310 311 311 311 311 312 312 311 312 312 312 312 311 310 311 311 311 311 311 310 309 308 308 308 308 310 310 309 308 308 308
307 308 308 308 308 309 309 309 309 310 310 309 310 310 310 310 311 312 311 310 311 310 309 310 310 310 310 310 310 310 310 310 309 308 307 308 309 309 310 310 309 309 308
308 308 308 308 308 309 308 308 309 309 309 308 308 308 308 308 310 309 309 309 308 308 306 305 305 307 309 309 310 310 310 311 310 309 308 307 307 307 308 309 309 309 308
307 308 308 308 307 307 308 308 308 308 308 307 307 307 306 307 306 307 307 306 305 304 302 302 303 303 303 307 309 310 310 310 310 310 308 306 305 305 305 309 309 309 307
307 307 306 306 306 306 305 305 305 305 305 304 304 304 304 305 305 305 304 304 304 304 300 302 302 299 298 302 307 308 309 309 309 309 308 306 306 305 304 306 308 308 308
305 305 305 304 304 304 304 303 303 303 303 303 302 302 302 302 300 298 300 300 300 299 299 301 302 303 300 297 305 307 308 309 309 309 309 307 306 305 304 304 306 306 306
304 303 303 303 302 302 302 302 301 299 300 301 300 299 298 298 297 296 298 299 299 297 299 298 294 293 293 296 303 305 306 308 308 308 309 308 307 306 305 304 305 305 305
303 302 302 302 301 300 300 299 298 296 296 294 293 293 293 293 293 294 295 296 297 295 293 291 291 291 291 295 299 302 304 304 306 307 308 308 308 307 306 305 305 305 306
300 300 300 299 298 297 297 297 296 296 294 293 293 292 292 292 291 291 290 291 292 291 290 290 290 290 290 292 296 299 302 304 304 304 306 307 308 307 307 306 306 305 305
299 299 298 297 296 295 295 295 294 293 293 292 292 291 291 290 290 290 290 290 289 289 288 289 289 289 289 290 292 294 295 297 300 302 302 305 307 308 307 306 306 306 306
296 294 294 293 293 292 292 291 292 292 292 291 291 290 290 290 290 289 288 288 288 287 288 288 288 288 289 289 290 291 292 293 294 298 301 302 304 306 307 306 306 307 306
294 293 292 292 291 291 291 290 290 290 290 290 290 289 289 289 288 288 288 287 287 287 287 287 287 288 288 289 289 289 290 291 292 293 296 299 300 303 306 306 306 306 306
293 292 291 291 290 290 290 290 290 289 289 289 289 288 288 288 288 287 287 286 286 286 286 286 287 287 287 288 288 289 289 290 291 291 293 295 297 299 303 305 306 306 305
291 291 290 290 290 290 289 289 289 288 288 288 288 287 287 287 287 286 286 286 286 286 286 286 287 287 287 287 287 288 288 289 290 291 291 293 294 296 299 301 304 305 305
291 290 290 290 290 289 289 289 288 288 288 288 287 287 286 286 286 286 286 285 286 286 286 286 286 286 286 287 287 287 287 288 290 290 291 291 292 292 294 298 301 303 304
291 290 290 290 290 289 289 289 288 288 288 287 286 286 286 285 285 285 285 285 286 286 286 286 286 286 286 286 287 287 287 287 288 289 290 290 291 291 291 294 298 301 303
291 291 290 290 290 289 289 288 288 288 287 286 285 285 285 285 285 285 285 285 285 285 285 285 285 286 286 286 287 287 287 287 287 288 289 289 290 290 290 291 293 299 301
Wind_Speed
17 14 12 15 15 16 17 27 25 19 13 9 6 6 8 7 7 11 15 16 16 16 15 16 17 19 20 21 25 28 29 29 35 40 37 38 37 35 31 28 29 28 28
19 20 20 17 18 24 27 23 18 16 13 9 6 3 3 8 12 15 14 12 12 13 16 18 20 21 24 26 26 27 27 26 30 37 36 35 33 33 31 29 26 26 29
29 27 24 24 26 23 19 17 14 9 6 4 1 4 9 11 10 9 8 11 13 16 17 19 23 23 21 22 24 28 31 31 29 34 37 32 32 29 29 28 30 27 30
30 29 28 25 22 18 15 13 10 7 3 0 4 7 7 7 8 10 12 13 14 17 19 21 21 20 18 26 29 30 34 32 32 33 33 31 29 28 29 33 35 31 37
27 28 27 24 20 17 14 11 8 5 2 3 5 6 8 10 12 13 13 16 17 19 19 19 19 22 23 27 31 32 33 34 32 32 31 30 32 32 33 34 36 36 37
26 26 24 20 17 15 11 8 6 5 6 7 9 12 13 15 14 14 16 18 20 19 21 21 23 24 25 27 28 29 32 32 32 30 29 29 29 28 29 32 34 37 30
28 25 22 18 15 13 11 10 9 9 10 11 13 14 14 14 14 14 17 19 22 22 22 22 23 25 28 29 29 29 28 30 30 26 26 25 27 27 29 29 29 33 31
27 24 20 15 13 13 12 11 12 12 13 14 14 13 11 11 11 13 17 19 22 23 24 23 25 28 29 30 31 32 34 34 33 29 24 22 22 24 23 22 24 28 30
25 22 19 15 14 14 13 13 15 15 16 15 13 11 10 10 9 11 14 18 20 22 23 24 26 28 29 30 31 34 35 38 36 30 26 22 20 20 21 20 21 24 28
22 21 18 16 14 13 14 15 16 15 15 13 11 10 10 10 9 10 13 15 15 19 21 23 23 26 27 29 31 35 37 39 39 33 31 23 20 19 18 17 18 23 27
21 18 17 16 14 14 14 14 13 12 10 9 9 9 8 9 10 11 13 13 15 19 21 22 22 23 25 27 30 32 34 35 35 32 31 32 29 25 23 18 17 20 21
19 18 17 16 16 15 13 13 11 10 7 7 7 8 9 10 11 14 14 14 14 17 21 22 23 22 23 24 25 27 28 31 36 37 34 33 35 35 30 24 20 18 15
19 19 18 17 17 16 14 14 11 10 8 9 9 10 10 11 12 13 13 12 14 15 17 18 19 21 22 21 23 25 28 33 36 38 39 34 33 36 34 25 24 22 18
20 20 19 18 19 19 18 16 15 16 15 15 14 13 12 11 12 14 15 14 14 14 15 17 18 19 22 22 21 25 29 32 35 36 38 35 33 36 39 31 27 28 29
20 21 21 21 19 19 19 19 17 18 18 18 19 18 17 18 21 22 22 21 20 19 17 17 20 23 27 25 24 26 28 30 34 35 35 37 38 39 38 36 30 29 29
22 22 21 20 18 17 16 17 18 18 16 15 16 18 17 16 14 16 17 17 17 18 18 21 25 27 28 28 28 27 28 31 33 35 35 35 39 39 39 38 36 34 30
24 23 21 19 18 17 16 16 18 17 17 17 17 18 19 17 16 16 16 16 15 15 20 25 27 29 28 27 28 29 28 31 33 33 33 35 36 37 38 37 36 36 34
23 21 20 19 17 17 16 16 14 13 13 15 17 18 19 18 17 15 15 13 17 22 26 27 28 28 29 28 27 28 27 26 29 33 34 33 35 36 36 36 35 35 35
19 18 18 18 17 16 14 14 13 13 13 14 14 18 19 17 17 19 20 23 25 26 26 27 27 28 29 29 27 27 29 30 30 32 34 34 33 34 35 34 34 32 32
19 17 15 15 15 15 15 14 13 13 12 13 16 19 18 16 21 23 25 25 26 26 26 26 27 27 28 29 29 28 28 30 31 32 32 33 34 32 33 33 33 33 32
16 15 13 14 14 14 14 15 15 14 15 15 16 17 18 19 22 23 24 25 25 25 26 26 27 27 27 28 29 30 30 31 32 33 33 32 33 33 31 30 30 29 29
13 15 13 14 14 13 14 13 14 13 14 13 14 15 16 19 21 22 22 23 24 24 24 25 26 28 29 30 30 30 31 32 32 33 33 32 32 32 30 29 29 29 29
13 13 13 14 13 13 12 12 11 13 14 14 14 15 17 19 20 20 21 21 21 22 23 24 24 26 27 28 29 30 31 31 31 32 31 32 32 32 32 31 28 28 27
13 12 13 13 12 11 11 12 11 12 13 13 14 15 16 18 18 19 19 20 20 21 22 23 24 25 25 26 26 28 29 27 27 28 28 29 31 31 30 31 29 27 27
13 13 12 12 11 10 10 10 10 11 12 13 14 14 15 16 16 17 18 19 20 20 22 23 23 24 25 25 25 24 24 24 23 24 25 27 28 30 30 30 30 27 26
11 10 10 9 8 8 8 8 8 10 11 13 13 14 15 16 17 17 17 18 19 19 20 21 22 22 22 23 24 23 24 24 23 23 23 25 28 30 30 31 30 29 27
Wind_Direction
182 181 189 185 171 164 161 163 163 170 175 193 211 238 253 275 312 330 329 330 335 343 348 352 348 340 332 329 331 329 322 323 312 316 321 326 325 327 327 322 318 314 313
162 148 134 138 152 147 147 154 151 158 162 180 199 228 322 336 332 331 341 352 3 2 4 355 341 337 338 342 346 347 339 330 323 321 328 330 328 336 333 328 328 337 334
142 135 136 142 145 143 147 146 151 160 169 180 225 319 326 331 342 7 27 28 18 13 4 349 344 342 350 0 356 351 348 346 338 328 326 330 334 338 337 338 337 336 342
143 145 142 141 143 142 142 145 147 151 157 42 336 339 359 36 56 58 49 36 23 20 12 1 354 354 6 11 8 4 0 354 352 343 338 338 343 346 342 336 334 332 334
149 144 138 140 139 138 143 144 146 133 91 14 12 38 75 85 79 65 50 38 31 18 10 14 22 30 23 16 13 8 4 2 352 346 346 344 345 343 341 340 334 334 333
145 145 140 141 136 138 137 127 114 87 63 60 78 97 99 91 74 60 51 35 27 19 29 30 27 23 19 15 10 8 6 2 1 352 343 341 339 340 342 348 350 345 331
141 135 134 130 129 123 112 106 91 80 80 85 93 98 93 88 73 56 41 32 27 28 24 20 21 15 14 13 13 8 3 3 359 354 350 348 346 353 354 353 353 350 349
132 130 127 127 122 111 104 95 86 86 89 87 90 87 84 82 64 47 37 31 29 25 17 19 14 13 10 7 11 6 7 3 358 354 357 357 355 1 360 353 347 350 0
128 126 120 114 110 106 101 95 90 92 90 86 84 77 80 62 42 36 31 31 33 27 22 19 18 14 12 10 5 6 8 5 355 358 359 354 355 0 358 357 356 359 355
122 118 114 109 105 104 101 99 95 97 90 83 74 72 61 48 31 17 13 23 26 24 22 21 18 17 13 8 9 10 9 6 3 8 8 14 13 15 9 356 353 343 347
118 114 112 110 106 102 105 102 97 97 94 86 76 63 45 37 18 3 8 18 25 19 20 16 14 12 10 9 10 14 12 9 10 15 20 28 27 17 7 3 1 358 348
115 114 112 109 105 100 100 98 94 90 88 75 65 56 45 29 4 359 5 14 20 19 19 12 9 7 7 5 9 16 15 13 16 18 17 21 26 21 9 3 2 357 359
116 112 109 106 102 96 91 85 83 77 70 61 49 47 41 28 15 4 7 18 19 16 19 10 4 5 10 10 12 15 15 17 19 18 19 20 25 25 13 8 16 23 31
114 111 109 105 100 94 86 81 82 75 66 60 52 44 39 35 34 31 25 21 16 7 12 9 6 15 19 16 17 22 21 19 22 21 21 22 27 33 21 16 19 19 26
111 109 109 106 99 95 91 87 80 71 58 52 50 45 41 34 30 24 20 19 15 12 6 7 8 10 11 17 24 28 25 23 26 24 22 27 32 35 30 23 25 27 32
115 113 109 105 102 97 93 92 86 73 66 56 46 41 37 37 26 21 20 18 14 12 4 17 24 23 21 22 25 30 27 25 28 28 27 28 34 35 32 33 32 36 36
108 110 109 105 101 97 92 86 83 74 64 59 52 44 38 34 32 24 22 20 21 19 32 33 34 29 26 27 30 29 28 26 28 28 28 30 32 35 35 32 32 32 35
109 106 106 103 98 93 88 80 74 71 67 61 51 41 35 32 31 38 38 40 42 41 40 37 36 32 29 30 30 31 32 27 28 29 29 30 35 35 36 34 34 34 33
108 107 102 97 89 82 78 77 73 71 65 61 53 45 36 35 39 42 40 43 44 43 40 37 35 33 32 31 32 31 31 31 28 28 28 29 30 34 36 34 36 35 35
106 99 94 88 87 81 75 77 78 74 70 60 57 45 36 33 42 40 41 40 40 38 36 34 32 32 32 32 32 31 31 32 31 29 28 27 29 29 35 35 35 35 33
101 98 95 92 85 82 80 79 76 74 66 57 47 41 31 32 38 37 36 37 35 34 31 30 29 29 29 30 31 31 31 30 30 29 27 27 27 26 30 35 35 36 36
102 94 90 86 87 90 86 80 76 72 69 58 47 38 33 34 35 35 34 34 32 31 30 28 28 27 26 26 27 28 27 27 27 27 27 26 26 26 27 28 34 32 33
103 99 97 97 94 88 86 77 69 67 62 56 48 40 35 34 32 33 32 31 30 30 29 27 28 29 27 26 25 26 26 25 24 22 22 24 25 24 27 28 28 31 34
106 108 108 100 91 87 82 79 69 60 54 47 44 39 35 32 29 29 28 28 28 28 29 30 29 27 26 27 27 25 24 24 22 21 22 23 23 24 26 28 29 31 28
101 100 97 94 90 83 78 67 60 54 46 43 42 41 37 34 32 31 29 27 26 25 25 25 27 26 25 25 27 27 25 23 23 20 20 23 25 25 27 27 28 31 31
100 97 94 90 88 81 68 58 50 51 47 44 40 37 33 30 29 28 28 27 27 26 26 26 26 26 26 26 25 23 22 21 21 20 21 21 22 24 25 26 28 29 32